AFL2505 UUEE-UWKD

Flight info

Callsign AFL2505
Flight time 1h 15m
Altitude 35000
Route KOGO3J KOGOM L94 EKPIR M864 INKEB L94 UNORO T788 KOROM KORO1R
Aircraft A320/M-SDE2E3FGIJ1RWYZ/S

Departure

Time 2026-05-07 21:55
Airport Sheremetyevo International Airport (UUEE)

Arrival

Time 2026-05-07 23:11
Airport Kazan International Airport (UWKD)
Time Latitude Longitude Altitude Speed Heading
2026-05-07 21:03 55.96667 37.41283 638 ft 0 kts 104°
2026-05-07 21:35 55.96669 37.41267 638 ft 2 kts 104°
2026-05-07 21:35 55.96673 37.41240 638 ft 2 kts 104°
2026-05-07 21:35 55.96677 37.41215 638 ft 2 kts 104°
2026-05-07 21:35 55.96681 37.41189 638 ft 2 kts 104°
2026-05-07 21:36 55.96684 37.41162 638 ft 2 kts 86°
2026-05-07 21:36 55.96680 37.41136 638 ft 2 kts 58°
2026-05-07 21:36 55.96669 37.41117 638 ft 2 kts 29°
2026-05-07 21:36 55.96655 37.41108 638 ft 2 kts
2026-05-07 21:37 55.96640 37.41113 638 ft 2 kts 336°
2026-05-07 21:37 55.96635 37.41118 638 ft 0 kts 339°
2026-05-07 21:46 55.96648 37.41109 638 ft 4 kts 342°
2026-05-07 21:46 55.96688 37.41090 638 ft 4 kts 346°
2026-05-07 21:47 55.96708 37.41082 638 ft 2 kts 346°
2026-05-07 21:47 55.96742 37.41066 638 ft 7 kts 343°
2026-05-07 21:47 55.96807 37.41031 637 ft 5 kts 343°
2026-05-07 21:47 55.96809 37.41030 637 ft 0 kts 344°
2026-05-07 21:48 55.96811 37.41030 638 ft 1 kts 345°
2026-05-07 21:48 55.96838 37.41031 638 ft 6 kts 19°
2026-05-07 21:48 55.96871 37.41122 638 ft 11 kts 71°
2026-05-07 21:48 55.96895 37.41290 638 ft 16 kts 77°
2026-05-07 21:49 55.96925 37.41484 638 ft 14 kts 75°
2026-05-07 21:49 55.96951 37.41661 637 ft 16 kts 75°
2026-05-07 21:49 55.96984 37.41883 637 ft 20 kts 74°
2026-05-07 21:49 55.97023 37.42142 638 ft 23 kts 74°
2026-05-07 21:50 55.97068 37.42438 638 ft 25 kts 74°
2026-05-07 21:50 55.97105 37.42671 637 ft 1 kts 69°
2026-05-07 21:50 55.97105 37.42672 637 ft 0 kts 69°
2026-05-07 21:51 55.97107 37.42680 638 ft 2 kts 69°
2026-05-07 21:52 55.97120 37.42746 638 ft 8 kts 69°
2026-05-07 21:52 55.97124 37.42763 638 ft 0 kts 70°
2026-05-07 21:52 55.97125 37.42766 637 ft 0 kts 69°
2026-05-07 21:52 55.97126 37.42771 638 ft 2 kts 72°
2026-05-07 21:53 55.97133 37.42829 637 ft 7 kts 79°
2026-05-07 21:53 55.97146 37.42952 638 ft 12 kts 72°
2026-05-07 21:53 55.97223 37.43034 638 ft 16 kts 348°
2026-05-07 21:53 55.97319 37.42987 638 ft 10 kts 339°
2026-05-07 21:54 55.97346 37.42879 638 ft 8 kts 255°
2026-05-07 21:54 55.97336 37.42814 638 ft 10 kts 255°
2026-05-07 21:54 55.97255 37.42244 638 ft 84 kts 254°
2026-05-07 21:54 55.97041 37.40847 638 ft 144 kts 255°
2026-05-07 21:55 55.96794 37.39047 1143 ft 146 kts 257°
2026-05-07 21:55 55.96538 37.37277 1646 ft 152 kts 255°
2026-05-07 21:55 55.96255 37.35454 2219 ft 156 kts 255°
2026-05-07 21:55 55.95965 37.33590 2827 ft 157 kts 255°
2026-05-07 21:56 55.95680 37.31747 3414 ft 158 kts 255°
2026-05-07 21:56 55.95391 37.29850 4007 ft 160 kts 255°
2026-05-07 21:56 55.95100 37.27929 4609 ft 162 kts 255°
2026-05-07 21:56 55.94810 37.26013 5196 ft 163 kts 255°
2026-05-07 21:57 55.94503 37.23977 5632 ft 181 kts 255°
2026-05-07 21:57 55.94156 37.21704 6272 ft 199 kts 255°
2026-05-07 21:57 55.93906 37.19204 6978 ft 216 kts 275°
2026-05-07 21:57 55.94361 37.16618 7592 ft 238 kts 305°
2026-05-07 21:58 55.95525 37.14679 8350 ft 252 kts 330°
2026-05-07 21:58 55.97145 37.13341 9135 ft 269 kts 339°
2026-05-07 21:58 55.98941 37.12153 9928 ft 286 kts 340°
2026-05-07 21:58 56.00858 37.11008 10949 ft 295 kts 347°
2026-05-07 21:59 56.02930 37.10970 11687 ft 312 kts 15°
2026-05-07 21:59 56.04830 37.12844 12482 ft 324 kts 45°
2026-05-07 21:59 56.06047 37.16248 13285 ft 336 kts 72°
2026-05-07 21:59 56.06294 37.20449 13787 ft 356 kts 97°
2026-05-07 22:00 56.05496 37.24829 14033 ft 382 kts 116°
2026-05-07 22:00 56.04154 37.29116 14041 ft 413 kts 120°
2026-05-07 22:00 56.02686 37.33713 14118 ft 438 kts 118°
2026-05-07 22:00 56.01235 37.38474 15121 ft 437 kts 118°
2026-05-07 22:01 55.99777 37.43192 16171 ft 435 kts 118°
2026-05-07 22:01 55.98307 37.47864 17175 ft 433 kts 119°
2026-05-07 22:01 55.96817 37.52510 18199 ft 430 kts 120°
2026-05-07 22:01 55.95289 37.57175 19250 ft 426 kts 120°
2026-05-07 22:02 55.93784 37.61671 20283 ft 421 kts 121°
2026-05-07 22:02 55.92284 37.66066 21268 ft 416 kts 121°
2026-05-07 22:02 55.91037 37.70860 21458 ft 433 kts 108°
2026-05-07 22:02 55.90203 37.76122 21465 ft 451 kts 107°
2026-05-07 22:03 55.89085 37.81472 21468 ft 464 kts 113°
2026-05-07 22:03 55.87742 37.86578 21459 ft 443 kts 117°
2026-05-07 22:03 55.86811 37.89761 21456 ft 430 kts 118°
2026-05-07 22:03 55.84943 37.95791 21446 ft 405 kts 119°
2026-05-07 22:04 55.83591 38.00060 21441 ft 388 kts 120°
2026-05-07 22:04 55.82293 38.04155 21435 ft 372 kts 119°
2026-05-07 22:04 55.81025 38.08200 21436 ft 371 kts 116°
2026-05-07 22:04 55.80093 38.12495 21528 ft 379 kts 104°
2026-05-07 22:05 55.79707 38.17113 22071 ft 382 kts 91°
2026-05-07 22:05 55.79743 38.21914 22708 ft 382 kts 87°
2026-05-07 22:05 55.79865 38.26633 23220 ft 385 kts 87°
2026-05-07 22:05 55.79993 38.31415 23709 ft 388 kts 87°
2026-05-07 22:06 55.80135 38.36229 24195 ft 391 kts 85°
2026-05-07 22:06 55.80489 38.41101 24678 ft 394 kts 79°
2026-05-07 22:06 55.81103 38.45842 25139 ft 397 kts 73°
2026-05-07 22:06 55.81921 38.50583 25595 ft 400 kts 72°
2026-05-07 22:07 55.82784 38.55327 26032 ft 402 kts 71°
2026-05-07 22:07 55.83646 38.60067 26456 ft 405 kts 71°
2026-05-07 22:07 55.84515 38.64888 26872 ft 408 kts 71°
2026-05-07 22:07 55.85429 38.69677 27270 ft 410 kts 70°
2026-05-07 22:08 55.86506 38.74443 27665 ft 413 kts 66°
2026-05-07 22:08 55.87698 38.79058 28043 ft 415 kts 65°
2026-05-07 22:08 55.88957 38.83777 28418 ft 418 kts 64°
2026-05-07 22:08 55.90214 38.88478 28779 ft 420 kts 64°
2026-05-07 22:09 55.91460 38.93156 29129 ft 423 kts 64°
2026-05-07 22:09 55.92735 38.97964 29478 ft 425 kts 65°
2026-05-07 22:09 55.93990 39.02787 29814 ft 427 kts 66°
2026-05-07 22:09 55.95083 39.07761 30138 ft 429 kts 71°
2026-05-07 22:10 55.95956 39.12880 30454 ft 432 kts 75°
2026-05-07 22:10 55.96608 39.18193 30784 ft 433 kts 80°
2026-05-07 22:10 55.97022 39.23560 31194 ft 432 kts 83°
2026-05-07 22:10 55.97317 39.28937 31632 ft 431 kts 84°
2026-05-07 22:11 55.97588 39.34243 32035 ft 430 kts 84°
2026-05-07 22:11 55.97858 39.39536 32409 ft 429 kts 84°
2026-05-07 22:11 55.98133 39.44881 32770 ft 428 kts 84°
2026-05-07 22:11 55.98408 39.50191 33119 ft 428 kts 84°
2026-05-07 22:12 55.98753 39.55456 33438 ft 427 kts 81°
2026-05-07 22:12 55.99291 39.60755 33713 ft 428 kts 77°
2026-05-07 22:12 55.99984 39.65968 33959 ft 429 kts 76°
2026-05-07 22:12 56.00707 39.71143 34194 ft 431 kts 76°
2026-05-07 22:13 56.01438 39.76363 34428 ft 432 kts 76°
2026-05-07 22:13 56.02159 39.81598 34655 ft 433 kts 77°
2026-05-07 22:13 56.02728 39.86911 34869 ft 434 kts 82°
2026-05-07 22:13 56.03061 39.92295 35017 ft 435 kts 86°
2026-05-07 22:14 56.03261 40.03129 35032 ft 435 kts 89°
2026-05-07 22:14 56.03383 40.13996 35035 ft 435 kts 89°
2026-05-07 22:15 56.03506 40.24842 35036 ft 435 kts 89°
2026-05-07 22:15 56.03624 40.35698 35036 ft 435 kts 89°
2026-05-07 22:16 56.03735 40.46555 35035 ft 435 kts 89°
2026-05-07 22:16 56.03836 40.57411 35035 ft 435 kts 89°
2026-05-07 22:17 56.03926 40.68295 35036 ft 435 kts 89°
2026-05-07 22:17 56.04009 40.79255 35036 ft 435 kts 89°
2026-05-07 22:18 56.04118 40.95607 35036 ft 435 kts 89°
2026-05-07 22:19 56.04178 41.06481 35036 ft 435 kts 89°
2026-05-07 22:19 56.04227 41.17337 35036 ft 435 kts 89°
2026-05-07 22:20 56.04266 41.28185 35036 ft 435 kts 89°
2026-05-07 22:20 56.04296 41.39041 35035 ft 435 kts 89°
2026-05-07 22:21 56.04317 41.49901 35035 ft 435 kts 89°
2026-05-07 22:21 56.04327 41.60746 35035 ft 435 kts 89°
2026-05-07 22:22 56.04329 41.71565 35036 ft 435 kts 90°
2026-05-07 22:22 56.04322 41.82427 35036 ft 435 kts 90°
2026-05-07 22:23 56.04304 41.93287 35036 ft 435 kts 90°
2026-05-07 22:23 56.04277 42.04120 35036 ft 435 kts 90°
2026-05-07 22:24 56.04240 42.14981 35036 ft 435 kts 90°
2026-05-07 22:24 56.04194 42.25842 35036 ft 435 kts 90°
2026-05-07 22:25 56.04138 42.36634 35036 ft 435 kts 90°
2026-05-07 22:25 56.04071 42.47519 35035 ft 435 kts 90°
2026-05-07 22:26 56.03984 42.58373 35035 ft 435 kts 90°
2026-05-07 22:26 56.03850 42.69211 35036 ft 435 kts 91°
2026-05-07 22:27 56.03706 42.80127 35036 ft 435 kts 91°
2026-05-07 22:27 56.03555 42.90952 35036 ft 435 kts 91°
2026-05-07 22:28 56.03394 43.01837 35036 ft 435 kts 91°
2026-05-07 22:28 56.03222 43.12794 35036 ft 435 kts 91°
2026-05-07 22:29 56.03040 43.23693 35036 ft 435 kts 91°
2026-05-07 22:29 56.03040 43.34513 35036 ft 435 kts 86°
2026-05-07 22:30 56.03634 43.45311 35036 ft 435 kts 82°
2026-05-07 22:30 56.04378 43.56104 35035 ft 435 kts 82°
2026-05-07 22:31 56.05106 43.66847 35035 ft 435 kts 83°
2026-05-07 22:31 56.05822 43.77653 35036 ft 435 kts 83°
2026-05-07 22:32 56.06523 43.88388 35036 ft 435 kts 83°
2026-05-07 22:32 56.07220 43.99189 35036 ft 435 kts 83°
2026-05-07 22:33 56.07904 44.09959 35036 ft 435 kts 83°
2026-05-07 22:33 56.08580 44.20758 35036 ft 435 kts 83°
2026-05-07 22:34 56.09249 44.31589 35036 ft 435 kts 83°
2026-05-07 22:34 56.09905 44.42367 35035 ft 436 kts 83°
2026-05-07 22:35 56.10569 44.53166 35036 ft 436 kts 83°
2026-05-07 22:35 56.11150 44.63983 35037 ft 436 kts 86°
2026-05-07 22:36 56.11158 44.74906 35037 ft 436 kts 92°
2026-05-07 22:36 56.10923 44.85791 35036 ft 436 kts 92°
2026-05-07 22:37 56.10683 44.96695 35036 ft 436 kts 92°
2026-05-07 22:37 56.10440 45.07561 35036 ft 436 kts 92°
2026-05-07 22:38 56.10187 45.18370 35036 ft 435 kts 92°
2026-05-07 22:38 56.09942 45.29225 35036 ft 435 kts 92°
2026-05-07 22:39 56.09681 45.40083 35037 ft 435 kts 92°
2026-05-07 22:39 56.09545 45.45530 34839 ft 435 kts 92°
2026-05-07 22:39 56.09406 45.50967 34588 ft 433 kts 92°
2026-05-07 22:39 56.09267 45.56279 34341 ft 431 kts 92°
2026-05-07 22:40 56.09123 45.61698 34086 ft 428 kts 92°
2026-05-07 22:40 56.08976 45.67146 33830 ft 426 kts 93°
2026-05-07 22:40 56.08831 45.72433 33576 ft 426 kts 93°
2026-05-07 22:40 56.08681 45.77811 33242 ft 427 kts 93°
2026-05-07 22:41 56.08531 45.83115 32816 ft 428 kts 93°
2026-05-07 22:41 56.08377 45.88482 32273 ft 428 kts 93°
2026-05-07 22:41 56.08224 45.93742 31683 ft 429 kts 93°
2026-05-07 22:41 56.08067 45.99088 31056 ft 430 kts 93°
2026-05-07 22:42 56.07905 46.04488 30408 ft 431 kts 93°
2026-05-07 22:42 56.07743 46.09841 29931 ft 427 kts 93°
2026-05-07 22:42 56.07580 46.15081 29500 ft 423 kts 93°
2026-05-07 22:42 56.07414 46.20319 29062 ft 419 kts 93°
2026-05-07 22:43 56.07246 46.25528 28621 ft 415 kts 93°
2026-05-07 22:43 56.07077 46.30678 28182 ft 412 kts 93°
2026-05-07 22:43 56.06907 46.35782 27745 ft 409 kts 93°
2026-05-07 22:43 56.06736 46.40889 27305 ft 406 kts 93°
2026-05-07 22:44 56.06560 46.45922 26869 ft 402 kts 95°
2026-05-07 22:44 56.06189 46.50855 26438 ft 399 kts 101°
2026-05-07 22:44 56.05521 46.55662 26005 ft 396 kts 107°
2026-05-07 22:44 56.04617 46.60255 25580 ft 393 kts 110°
2026-05-07 22:45 56.03640 46.64819 25149 ft 391 kts 110°
2026-05-07 22:45 56.02655 46.69371 24718 ft 388 kts 111°
2026-05-07 22:45 56.01680 46.73882 24288 ft 386 kts 111°
2026-05-07 22:45 56.00724 46.78315 23866 ft 383 kts 111°
2026-05-07 22:46 55.99765 46.82760 23440 ft 381 kts 111°
2026-05-07 22:46 55.98818 46.87143 23019 ft 379 kts 111°
2026-05-07 22:46 55.97866 46.91544 22595 ft 377 kts 111°
2026-05-07 22:46 55.96917 46.95924 22173 ft 374 kts 111°
2026-05-07 22:47 55.95975 47.00256 21753 ft 372 kts 111°
2026-05-07 22:47 55.95039 47.04552 21335 ft 370 kts 111°
2026-05-07 22:47 55.94117 47.08772 20922 ft 368 kts 111°
2026-05-07 22:47 55.93187 47.13024 20506 ft 366 kts 111°
2026-05-07 22:48 55.92260 47.17264 20090 ft 363 kts 111°
2026-05-07 22:48 55.91340 47.21472 19676 ft 361 kts 111°
2026-05-07 22:48 55.90437 47.25607 19267 ft 359 kts 111°
2026-05-07 22:48 55.89520 47.29783 18853 ft 357 kts 111°
2026-05-07 22:49 55.88612 47.33851 18448 ft 354 kts 111°
2026-05-07 22:49 55.87700 47.37928 18041 ft 352 kts 111°
2026-05-07 22:49 55.86795 47.41984 17636 ft 350 kts 111°
2026-05-07 22:49 55.85895 47.46025 17231 ft 348 kts 111°
2026-05-07 22:50 55.85003 47.50028 16830 ft 345 kts 111°
2026-05-07 22:50 55.84114 47.54013 16430 ft 343 kts 111°
2026-05-07 22:50 55.83243 47.57918 16037 ft 341 kts 111°
2026-05-07 22:50 55.82368 47.61833 15643 ft 339 kts 111°
2026-05-07 22:51 55.81489 47.65756 15247 ft 337 kts 112°
2026-05-07 22:51 55.80608 47.69691 14849 ft 335 kts 112°
2026-05-07 22:51 55.79747 47.73534 14460 ft 332 kts 112°
2026-05-07 22:51 55.78882 47.77380 13987 ft 333 kts 112°
2026-05-07 22:52 55.78026 47.81179 13431 ft 336 kts 112°
2026-05-07 22:52 55.77141 47.85112 12488 ft 346 kts 112°
2026-05-07 22:52 55.76250 47.89095 11530 ft 351 kts 111°
2026-05-07 22:52 55.75355 47.93129 10998 ft 347 kts 111°
2026-05-07 22:53 55.74492 47.97056 10490 ft 343 kts 111°
2026-05-07 22:53 55.73626 48.01033 9947 ft 340 kts 111°
2026-05-07 22:53 55.72780 48.04947 9410 ft 337 kts 111°
2026-05-07 22:53 55.71961 48.08775 8884 ft 334 kts 110°
2026-05-07 22:54 55.71134 48.12674 8346 ft 331 kts 110°
2026-05-07 22:54 55.70267 48.16331 8112 ft 318 kts 114°
2026-05-07 22:54 55.69371 48.19843 7983 ft 303 kts 114°
2026-05-07 22:54 55.68530 48.23200 7851 ft 290 kts 113°
2026-05-07 22:55 55.67743 48.26435 7721 ft 278 kts 113°
2026-05-07 22:55 55.66996 48.29576 7594 ft 272 kts 112°
2026-05-07 22:55 55.66262 48.32701 7464 ft 267 kts 112°
2026-05-07 22:55 55.65543 48.35782 7340 ft 272 kts 112°
2026-05-07 22:56 55.64825 48.38865 7215 ft 272 kts 112°
2026-05-07 22:56 55.64098 48.41997 7112 ft 271 kts 112°
2026-05-07 22:56 55.63385 48.45066 6917 ft 262 kts 112°
2026-05-07 22:56 55.62709 48.47971 6787 ft 251 kts 112°
2026-05-07 22:57 55.61903 48.50665 6631 ft 241 kts 134°
2026-05-07 22:57 55.60488 48.52087 6497 ft 235 kts 169°
2026-05-07 22:57 55.58872 48.51939 6369 ft 235 kts 199°
2026-05-07 22:57 55.57469 48.50383 6239 ft 235 kts 229°
2026-05-07 22:58 55.56692 48.47886 6114 ft 235 kts 258°
2026-05-07 22:58 55.56710 48.45015 5989 ft 234 kts 287°
2026-05-07 22:58 55.57327 48.42350 5875 ft 234 kts 295°
2026-05-07 22:58 55.58033 48.39735 5749 ft 233 kts 295°
2026-05-07 22:59 55.58722 48.37168 5625 ft 233 kts 295°
2026-05-07 22:59 55.59414 48.34537 5499 ft 232 kts 295°
2026-05-07 22:59 55.60180 48.32043 5362 ft 232 kts 311°
2026-05-07 22:59 55.61492 48.30396 5235 ft 232 kts 342°
2026-05-07 23:00 55.63090 48.30160 5111 ft 231 kts 12°
2026-05-07 23:00 55.64539 48.31358 4987 ft 231 kts 42°
2026-05-07 23:00 55.65458 48.33634 4862 ft 230 kts 71°
2026-05-07 23:00 55.65633 48.36429 4735 ft 230 kts 100°
2026-05-07 23:01 55.65116 48.39061 4595 ft 231 kts 115°
2026-05-07 23:01 55.64352 48.41610 4069 ft 240 kts 121°
2026-05-07 23:01 55.63491 48.44157 3821 ft 233 kts 115°
2026-05-07 23:01 55.62860 48.46744 3963 ft 228 kts 111°
2026-05-07 23:02 55.62365 48.49429 4023 ft 238 kts 97°
2026-05-07 23:02 55.62312 48.52488 3990 ft 256 kts 86°
2026-05-07 23:02 55.62441 48.55715 3867 ft 263 kts 85°
2026-05-07 23:02 55.62566 48.58947 3741 ft 263 kts 86°
2026-05-07 23:03 55.62659 48.62191 3616 ft 263 kts 87°
2026-05-07 23:03 55.62724 48.65448 3490 ft 263 kts 88°
2026-05-07 23:03 55.62772 48.68641 3354 ft 263 kts 89°
2026-05-07 23:03 55.62838 48.71907 2872 ft 266 kts 87°
2026-05-07 23:04 55.62957 48.75179 2470 ft 264 kts 87°
2026-05-07 23:04 55.62985 48.78379 2343 ft 258 kts 90°
2026-05-07 23:04 55.62967 48.81558 2218 ft 258 kts 90°
2026-05-07 23:04 55.62960 48.84688 2095 ft 257 kts 90°
2026-05-07 23:05 55.62989 48.87853 2075 ft 258 kts 84°
2026-05-07 23:05 55.63571 48.90841 2062 ft 257 kts 53°
2026-05-07 23:05 55.64884 48.92966 2079 ft 258 kts 34°
2026-05-07 23:05 55.66329 48.94675 2074 ft 257 kts 33°
2026-05-07 23:06 55.67840 48.96432 2071 ft 256 kts 33°
2026-05-07 23:06 55.69270 48.98128 2064 ft 242 kts 36°
2026-05-07 23:06 55.70342 49.00307 2029 ft 226 kts 71°
2026-05-07 23:06 55.70370 49.02923 2033 ft 208 kts 112°
2026-05-07 23:07 55.69648 49.05029 2142 ft 194 kts 127°
2026-05-07 23:07 55.68861 49.06859 2138 ft 176 kts 127°
2026-05-07 23:07 55.68172 49.08505 2077 ft 154 kts 126°
2026-05-07 23:07 55.67583 49.09974 2041 ft 141 kts 125°
2026-05-07 23:08 55.67021 49.11411 2059 ft 141 kts 124°
2026-05-07 23:08 55.66458 49.12866 1953 ft 141 kts 124°
2026-05-07 23:08 55.65909 49.14285 1773 ft 140 kts 124°
2026-05-07 23:08 55.65535 49.15252 1652 ft 140 kts 124°
2026-05-07 23:09 55.64979 49.16684 1472 ft 140 kts 124°
2026-05-07 23:09 55.64251 49.18558 1230 ft 139 kts 124°
2026-05-07 23:09 55.63699 49.19980 1041 ft 139 kts 124°
2026-05-07 23:09 55.63148 49.21399 852 ft 138 kts 124°
2026-05-07 23:10 55.62605 49.22792 668 ft 138 kts 124°
2026-05-07 23:10 55.62057 49.24202 483 ft 138 kts 124°
2026-05-07 23:10 55.61517 49.25594 352 ft 129 kts 123°
2026-05-07 23:10 55.61089 49.26697 367 ft 83 kts 124°
2026-05-07 23:11 55.60856 49.27283 375 ft 43 kts 130°
2026-05-07 23:11 55.60696 49.27688 383 ft 38 kts 123°
2026-05-07 23:11 55.60554 49.28071 389 ft 36 kts 123°
2026-05-07 23:11 55.60417 49.28419 394 ft 28 kts 123°
2026-05-07 23:12 55.60425 49.28615 396 ft 13 kts 34°
2026-05-07 23:12 55.60436 49.28629 396 ft 0 kts 34°
2026-05-07 23:13 55.60438 49.28631 396 ft 1 kts 34°
2026-05-07 23:13 55.60466 49.28665 396 ft 7 kts 34°
2026-05-07 23:13 55.60517 49.28727 399 ft 9 kts 34°
2026-05-07 23:13 55.60570 49.28798 403 ft 10 kts 50°
2026-05-07 23:14 55.60582 49.28977 400 ft 18 kts 91°
2026-05-07 23:14 55.60614 49.29184 401 ft 19 kts 41°
2026-05-07 23:14 55.60721 49.29317 408 ft 6 kts 34°
2026-05-07 23:14 55.60731 49.29339 411 ft 0 kts 72°
2026-05-07 23:15 55.60728 49.29369 414 ft 0 kts 120°
2026-05-07 23:15 55.60728 49.29372 414 ft 0 kts 116°
2026-05-07 23:15 55.60726 49.29382 415 ft 0 kts 104°
2026-05-07 23:15 55.60725 49.29396 416 ft 2 kts 84°
2026-05-07 23:16 55.60749 49.29454 417 ft 5 kts 41°
2026-05-07 23:16 55.60760 49.29471 416 ft 0 kts 37°